Location: Ariel
(45.9570°N, 122.5700°W)
Time: 11:30:56
(UTC-08:00)

XW-2B - Visible Passes

Search period start: 26 January 2021 00:00
Search period end: 05 February 2021 00:00
Orbit: 507 x 525 km, 97.5° (Epoch: 26 January)

Date Brightness Start Highest point End Pass type
(mag) Time Alt. Az. Time Alt. Az. Time Alt. Az.
26 Jan ? 06:19:31 10° NNE 06:23:21 87° WNW 06:27:10 10° SSW visible
26 Jan ? 18:38:56 10° WSW 18:39:58 11° W 18:41:02 10° WNW visible
27 Jan ? 06:04:47 10° NNE 06:08:36 62° E 06:12:22 10° S visible
27 Jan ? 18:22:41 10° SW 18:25:04 16° W 18:27:29 10° NW visible
28 Jan ? 05:50:09 10° NNE 05:53:48 41° E 05:57:25 10° S visible
28 Jan ? 18:07:10 10° SSW 18:10:12 23° W 18:13:16 10° NW visible
29 Jan ? 05:35:38 10° NE 05:38:59 28° E 05:42:18 10° SSE visible
29 Jan ? 17:51:56 10° SSW 17:55:21 33° W 17:58:50 10° NNW visible
30 Jan ? 05:21:17 10° NE 05:24:08 20° E 05:26:57 10° SE visible
30 Jan ? 06:54:48 10° N 06:58:16 34° WNW 07:01:43 10° SW visible
31 Jan ? 05:07:14 10° ENE 05:09:14 14° E 05:11:13 10° ESE visible
31 Jan ? 06:39:52 10° N 06:43:35 49° WNW 06:47:16 10° SSW visible
01 Feb ? 06:25:02 10° N 06:28:51 75° WNW 06:32:39 10° SSW visible
02 Feb ? 06:10:16 10° NNE 06:14:06 73° ESE 06:17:54 10° S visible
02 Feb ? 18:28:33 10° WSW 18:30:36 14° W 18:32:40 10° WNW visible
03 Feb ? 05:55:35 10° NNE 05:59:19 48° E 06:03:00 10° S visible
03 Feb ? 18:12:52 10° SW 18:15:43 20° W 18:18:35 10° NW visible
04 Feb ? 05:41:01 10° NNE 05:44:29 32° E 05:47:55 10° SSE visible
04 Feb ? 17:57:31 10° SSW 18:00:50 29° W 18:04:13 10° NW visible
